Home   Weather   Nagoya   Past weeks

Flag for Japan Past Weather in Nagoya, Japan — Yesterday and Last 2 Weeks

Now
79 °F

Partly sunny.


Feels Like: 82 °F
Forecast: 72 / 84 °F
Wind: 7 mph from Southwest

Location: Nagoya Airport

Current Time: Sep 26, 2016 at 4:01:24 PM

Latest Report: Sep 26, 2016 at 3:30 PM


Visibility: N/A

Pressure: 30.07 "Hg

Humidity: 79%

Dew Point: 72 °F

Location of NagoyaLocation

Past Weather in Nagoya — Graph

°F

Nagoya Temperature Yesterday

Maximum temperature yesterday: 81 °F (at 2:00 PM)
Minimum temperature yesterday: 68 °F (at 12:00 AM)
Average temperature yesterday: 74 °F

High & Low Weather Summary for the Past Weeks

 TemperatureHumidityPressure
High82 °F (Sep 12, 1:30 PM)94% (Sep 19, 5:00 AM)30.12 "Hg (Sep 19, 5:00 AM)
Low68 °F (Sep 24, 2:30 AM)58% (Sep 15, 9:30 AM)29.30 "Hg (Sep 20, 4:00 PM)
Average76 °F82%29.93 "Hg
* Reported Sep 11 3:00 PM — Sep 26 3:00 PM, Nagoya, Weather by CustomWeather, © 2016

Note: Actual official high and low records may vary slightly from our data, if they occured in-between our weather recording intervals... More about our weather records

Advertising

Nagoya Weather History for the Previous 24 Hours

Scroll right to see more
 ConditionsComfort  
Time TempWeatherWind HumidityBarometerVisibility
3:00 PM
Mon, Sep 26
79 °FPartly sunny.6 mph74%30.07 "HgN/A
2:30 PM81 °FPartly sunny.7 mph74%30.07 "HgN/A
2:00 PM79 °FPartly sunny.5 mph74%30.07 "HgN/A
1:30 PM81 °FPartly sunny.3 mph74%30.07 "HgN/A
1:00 PM81 °FPartly sunny.5 mph74%30.07 "HgN/A
12:30 PM79 °FBroken clouds.5 mph74%30.09 "HgN/A
12:00 PM77 °FBroken clouds.5 mph79%30.09 "HgN/A
11:30 AM77 °FPartly sunny.5 mph83%30.09 "HgN/A
11:00 AM77 °FPartly sunny.5 mph79%30.09 "HgN/A
10:30 AM75 °FBroken clouds.5 mph83%30.09 "HgN/A
10:00 AM75 °FBroken clouds.6 mph83%30.09 "HgN/A
9:30 AM75 °FPartly sunny.8 mph78%30.12 "HgN/A
9:00 AM73 °FBroken clouds.9 mph83%30.12 "HgN/A
8:30 AM77 °FBroken clouds.7 mph79%30.09 "HgN/A
8:00 AM73 °FBroken clouds.9 mph89%30.09 "HgN/A
7:30 AM72 °FLight rain. Broken clouds.8 mph88%30.09 "HgN/A
7:00 AM72 °FScattered showers. Broken clouds.6 mph94%30.09 "HgN/A
6:30 AM72 °FBroken clouds.6 mph94%30.09 "HgN/A
6:00 AM72 °FLight rain. Broken clouds.9 mph88%30.09 "HgN/A
5:30 AM72 °FScattered showers. Partly cloudy.7 mph94%30.09 "HgN/A
5:00 AM72 °FMostly cloudy.8 mph88%30.07 "HgN/A
4:30 AM72 °FLight rain. Mostly cloudy.6 mph94%30.07 "HgN/A
4:00 AM72 °FMostly cloudy.5 mph88%30.07 "HgN/A
3:30 AM72 °FLight rain. Partly cloudy.8 mph88%30.07 "HgN/A
3:00 AM72 °FPartly cloudy.2 mph88%30.07 "HgN/A
2:30 AM73 °FScattered showers. Passing clouds.3 mph83%30.07 "HgN/A
2:00 AM75 °FPartly cloudy.2 mph83%30.07 "HgN/A
1:30 AM75 °FPassing clouds.3 mph83%30.07 "HgN/A
1:00 AM75 °FPartly cloudy.3 mph83%30.07 "HgN/A
12:30 AM75 °FScattered showers. Partly cloudy.5 mph83%30.07 "HgN/A
12:00 AM75 °FPassing clouds.1 mph83%30.07 "HgN/A
11:30 PM
Sun, Sep 25
75 °FPartly cloudy.6 mph78%30.07 "HgN/A
11:00 PM75 °FPassing clouds.6 mph83%30.07 "HgN/A
10:30 PM75 °FPassing clouds.6 mph83%30.07 "HgN/A
10:00 PM75 °FPassing clouds.5 mph78%30.07 "HgN/A
9:30 PM75 °FPassing clouds.7 mph78%30.07 "HgN/A
9:00 PM75 °FPassing clouds.6 mph78%30.07 "HgN/A
8:30 PM75 °FPassing clouds.6 mph78%30.07 "HgN/A
8:00 PM75 °FPassing clouds.7 mph78%30.07 "HgN/A
7:30 PM75 °FPassing clouds.5 mph74%30.07 "HgN/A
7:00 PM75 °FPassing clouds.7 mph74%30.04 "HgN/A
6:30 PM75 °FPartly cloudy.7 mph74%30.04 "HgN/A
6:00 PM77 °FPartly cloudy.8 mph69%30.04 "HgN/A
5:30 PM77 °FPartly sunny.8 mph69%30.01 "HgN/A
5:00 PM79 °FPartly sunny.8 mph70%30.01 "HgN/A
4:30 PM77 °FPartly sunny.5 mph74%30.01 "HgN/A
4:00 PM79 °FPartly sunny.5 mph65%30.01 "HgN/A
Weather by CustomWeather, © 2016

See weather overviewHow to use our weather pages